GW1279 Weather Reports


Display with metric or nautical units.
time (UTC)temp
F
wind
direction
speed
MPH
gust
MPH
rain 1hr
in
rain 24hr
in
rain mn
in
humidity
%
barometer
mb
20260507104530 44 0 0.0 0.0 0.00 0.74 0.18 97 1005.3
20260507103030 43 0 0.0 0.0 0.00 0.74 0.18 97 1005.3
20260507101534 43 0 0.0 0.0 0.00 0.74 0.18 97 1004.4
20260507100032 43 0 0.0 0.0 0.00 0.74 0.18 97 1004.4
20260507094535 43 0 0.0 3.0 0.00 0.74 0.18 97 1004.5
20260507093030 44 0 0.0 3.0 0.00 0.74 0.18 97 1004.6
20260507091533 44 0 0.0 3.0 0.00 0.74 0.18 97 1004.6
20260507090029 44 0 0.0 4.0 0.00 0.74 0.18 98 1004.7
20260507084531 44 0 0.0 3.0 0.00 0.74 0.18 98 1004.3
20260507083030 45 0 1.0 10.0 0.00 0.74 0.18 98 1004.4
20260507081537 45 0 0.0 5.0 0.00 0.74 0.18 98 1004.3
20260507080028 46 0 0.0 1.0 0.00 0.74 0.18 99 1004.2
20260507074528 46 0 0.0 4.0 0.00 0.74 0.18 98 1004.3
20260507073031 46 0 0.0 3.0 0.00 0.74 0.18 99 1004.2
20260507071530 46 0 0.0 3.0 0.01 0.74 0.18 99 1003.7
20260507070041 47 0 0.0 0.0 0.01 0.74 0.18 99 1003.8
20260507064530 47 0 0.0 4.0 0.01 0.74 0.18 99 1003.9
20260507063028 47 0 0.0 7.0 0.04 0.74 0.18 99 1003.5
20260507061528 47 0 0.0 2.0 0.08 0.73 0.17 99 1003.4
20260507060028 48 0 0.0 3.0 0.15 0.73 0.17 99 1003.4
20260507054528 48 283 0.0 7.0 0.15 0.73 0.17 98 1003.1
20260507053028 48 0 0.0 9.0 0.13 0.70 0.14 98 1003.6
20260507051527 50 0 3.0 10.0 0.08 0.65 0.09 99 1004.1
20260507050032 51 0 2.0 10.0 0.02 0.58 0.02 99 1003.0
20260507044528 51 0 0.0 1.0 0.03 0.58 0.02 99 1002.8
20260507043030 51 0 0.0 5.0 0.02 0.57 0.01 99 1002.8
20260507041530 50 0 0.0 0.0 0.02 0.57 0.01 99 1002.8
20260507040033 51 0 0.0 4.0 0.01 0.56 0.00 99 1002.9
20260507034530 51 0 1.0 6.0 0.00 0.55 0.55 98 1002.7
20260507033037 51 0 0.0 6.0 0.00 0.55 0.55 98 1002.7
20260507031545 51 0 0.0 13.0 0.00 0.55 0.55 98 1002.6
20260507030031 51 0 0.0 10.0 0.01 0.55 0.55 98 1002.8
20260507024527 52 0 2.0 13.0 0.01 0.55 0.55 98 1003.1
20260507023029 52 0 0.0 15.0 0.02 0.55 0.55 98 1003.2
20260507021533 53 0 1.0 8.0 0.03 0.55 0.55 98 1003.6
20260507020028 53 0 0.0 6.0 0.03 0.54 0.54 98 1003.7
20260507014540 53 0 0.0 10.0 0.03 0.54 0.54 98 1003.9
20260507013035 53 0 0.0 5.0 0.02 0.52 0.52 98 1004.1
20260507011533 53 0 0.0 8.0 0.01 0.52 0.52 98 1004.4
20260507010035 53 229 1.0 8.0 0.00 0.51 0.51 98 1004.7
20260507004528 54 0 0.0 6.0 0.01 0.51 0.51 98 1004.7
20260507003028 54 0 0.0 9.0 0.01 0.51 0.51 98 1004.8
20260507001534 54 0 2.0 14.0 0.03 0.51 0.51 98 1005.0
20260507000027 54 227 0.0 9.0 0.04 0.51 0.51 98 1005.0
20260506234530 54 0 0.0 10.0 0.05 0.50 0.50 98 1005.2
20260506233030 54 0 1.0 11.0 0.10 0.50 0.50 98 1005.2
20260506231527 54 211 1.0 11.0 0.19 0.48 0.48 97 1005.3
20260506230027 54 0 0.0 10.0 0.22 0.47 0.47 97 1005.4
20260506224528 54 0 0.0 11.0 0.25 0.45 0.45 97 1005.1
20260506223028 54 0 0.0 6.0 0.23 0.39 0.39 97 1005.3
20260506221527 54 0 0.0 13.0 0.15 0.29 0.29 97 1005.6
20260506220028 54 0 1.0 10.0 0.13 0.24 0.24 97 1005.9
20260506214530 54 0 1.0 12.0 0.12 0.20 0.20 97 1006.0
20260506213032 54 0 1.0 14.0 0.09 0.16 0.16 96 1006.1
20260506211530 53 247 0.0 8.0 0.10 0.13 0.13 96 1006.2
20260506210032 53 0 0.0 7.0 0.10 0.11 0.11 95 1006.7
20260506204530 54 187 0.0 8.0 0.08 0.08 0.08 95 1006.8
20260506203036 54 218 1.0 7.0 0.06 0.06 0.06 93 1006.5
20260506201535 55 189 1.0 7.0 0.03 0.03 0.03 92 1006.7
20260506200035 56 208 3.0 11.0 0.01 0.01 0.01 89 1006.5
20260506194531 57 197 1.0 18.0 0.00 0.00 0.00 86 1006.6
20260506193030 58 204 2.0 10.0 0.00 0.00 0.00 84 1006.6
20260506191528 59 0 0.0 10.0 0.00 0.00 0.00 80 1006.8
20260506190031 61 196 3.0 12.0 0.00 0.00 0.00 76 1006.8
20260506184535 62 123 2.0 10.0 0.00 0.00 0.00 76 1006.7
20260506183028 60 227 2.0 9.0 0.00 0.00 0.00 79 1006.8
20260506181530 60 196 1.0 10.0 0.00 0.00 0.00 80 1007.3
20260506180030 60 0 1.0 10.0 0.00 0.00 0.00 80 1007.4
20260506174529 60 0 3.0 12.0 0.00 0.00 0.00 79 1007.4
20260506173032 60 0 1.0 13.0 0.00 0.00 0.00 79 1007.7
20260506171529 60 0 2.0 9.0 0.00 0.00 0.00 79 1008.0
20260506170029 60 201 0.0 6.0 0.00 0.00 0.00 80 1008.2
20260506164528 61 240 3.0 9.0 0.00 0.00 0.00 79 1008.2
20260506163034 60 202 0.0 11.0 0.00 0.00 0.00 80 1008.3
20260506161528 60 0 1.0 8.0 0.00 0.00 0.00 79 1008.8
20260506160028 61 198 2.0 11.0 0.00 0.00 0.00 78 1008.9
20260506154532 61 0 1.0 8.0 0.00 0.00 0.00 77 1009.0
20260506153029 63 0 1.0 6.0 0.00 0.00 0.00 75 1008.7
20260506151529 63 0 0.0 8.0 0.00 0.00 0.00 77 1008.2
20260506150030 62 177 1.0 7.0 0.00 0.00 0.00 76 1008.4
20260506144534 62 0 0.0 9.0 0.00 0.00 0.00 78 1008.7
20260506143032 61 204 0.0 9.0 0.00 0.00 0.00 79 1009.1
20260506141531 60 0 1.0 7.0 0.00 0.00 0.00 80 1009.4
20260506140028 61 193 1.0 6.0 0.00 0.00 0.00 76 1009.2
20260506134528 62 173 0.0 4.0 0.00 0.00 0.00 75 1008.9
20260506133028 62 0 0.0 4.0 0.00 0.00 0.00 76 1008.9
20260506131532 61 202 0.0 6.0 0.00 0.00 0.00 78 1009.0
20260506130028 59 0 0.0 2.0 0.00 0.00 0.00 81 1009.0
20260506124529 58 0 0.0 0.0 0.00 0.00 0.00 83 1009.0
20260506123027 57 0 0.0 4.0 0.00 0.00 0.00 84 1009.1
20260506121530 57 224 1.0 5.0 0.00 0.00 0.00 83 1009.5
20260506120033 56 0 0.0 0.0 0.00 0.00 0.00 84 1009.7
20260506114533 55 0 0.0 4.0 0.00 0.00 0.00 86 1009.7
20260506113030 54 0 0.0 1.0 0.00 0.00 0.00 89 1009.9
20260506111527 53 0 0.0 0.0 0.00 0.00 0.00 89 1009.6
20260506110033 52 0 0.0 1.0 0.00 0.00 0.00 91 1009.7